Location: Bastelaar
(51.0950°N, 3.8602°E)
Time: 08:29:24
(UTC+00:00)

BlueWalker 3 - Pass Details

Date: 25 January 2026
Orbit: 450 x 461 km, 53.2° (Epoch: 11 February)

Event Time Altitude Azimuth Distance (km) Brightness Sun altitude
Rises 19:49:31 0° 272° (W) 2,457 6.5 -32.1°
Reaches altitude 10° 19:51:41 10° 276° (W) 1,584 5.3 -32.4°
Enters shadow 19:52:05 13° 277° (W) 1,425 5.0 -32.5°
